Lid_Strength_Index
2 2 2 2 1 2 2 2 4 7 6 5 4 1 0 0 1 1 2 4 6 6 6 4 3 3 2 2 2 2 1 1 1 1 1 1 1 1
2 2 2 2 2 2 2 2 3 4 6 4 3 2 1 0 1 0 1 4 7 7 7 6 5 4 4 3 3 3 2 2 2 2 2 1 1 1
2 2 2 2 2 2 2 2 3 3 5 4 3 2 2 1 1 1 1 1 3 8 8 7 7 6 6 5 5 4 3 3 3 2 2 2 2 1
4 2 3 2 2 2 2 3 3 2 3 5 4 4 3 2 2 1 1 1 1 7 8 8 8 7 7 7 7 6 5 5 4 4 3 2 1 1
7 6 6 3 3 3 3 3 3 2 2 3 4 4 3 4 4 3 2 1 1 4 8 9 8 8 8 8 7 7 6 7 6 5 5 4 4 3
9 10 10 11 11 8 8 7 6 3 3 3 4 6 5 5 4 4 5 4 2 6 7 8 8 8 8 8 8 8 7 7 7 6 7 7 7 5
13 11 11 11 12 13 11 12 10 7 6 4 4 9 9 10 6 5 3 5 6 8 5 8 7 7 7 8 7 8 8 7 7 7 7 8 8 7
14 14 11 13 14 14 14 14 14 12 9 8 7 10 7 7 7 7 8 11 10 10 6 5 6 7 6 7 8 9 9 9 8 8 8 8 8 8
16 15 13 14 15 15 15 15 14 13 15 12 10 9 9 8 8 9 9 9 8 11 10 10 14 8 10 8 9 9 9 9 9 9 9 9 9 9
16 16 15 15 15 15 16 16 15 14 13 12 12 12 11 11 12 10 9 11 14 14 14 12 15 13 16 15 12 10 10 10 10 10 10 10 10 10
16 16 16 17 16 15 15 16 15 15 14 13 12 12 12 12 12 12 13 12 13 14 14 13 15 15 16 16 15 12 12 12 11 11 11 11 10 11
16 17 16 17 15 15 16 16 16 15 14 14 14 13 13 12 12 11 10 10 13 13 13 11 16 15 14 16 16 15 15 13 12 12 12 11 11 10
17 17 16 15 16 15 15 16 16 15 15 15 14 14 14 13 12 12 11 11 11 11 11 11 15 16 15 16 18 17 16 16 15 14 12 12 11 11
18 17 16 16 17 17 17 17 16 17 17 16 16 16 15 14 14 13 12 12 10 10 11 12 13 13 13 17 15 18 17 16 16 16 14 12 12 12
17 16 16 16 17 18 17 17 18 19 19 19 18 18 18 16 14 13 12 13 13 13 13 11 12 13 13 14 15 17 17 17 16 16 16 15 14 14
17 18 18 17 17 19 19 19 18 18 19 20 19 18 17 17 16 14 13 13 13 13 13 13 13 13 14 14 14 16 16 15 15 15 15 16 15 15
19 19 19 20 20 20 20 19 19 19 20 20 19 19 19 18 17 16 14 13 14 14 14 14 13 13 13 13 14 14 15 15 15 14 15 16 16 16
20 21 22 22 21 20 20 20 20 20 20 19 20 20 20 19 18 17 16 14 14 13 14 15 14 14 14 14 13 14 15 16 15 15 15 16 18 16
22 22 22 22 22 21 21 21 21 20 19 20 21 20 20 19 19 19 17 16 15 14 14 15 14 13 15 15 15 13 15 15 15 15 15 16 17 17
22 23 23 22 22 22 22 22 21 20 20 20 20 20 20 20 20 19 18 17 17 16 16 15 14 13 13 13 16 16 13 15 15 16 17 16 16 16
23 23 23 23 23 22 22 22 22 22 22 21 20 20 19 19 20 19 19 18 17 17 16 16 14 14 15 15 17 17 15 13 14 16 16 17 17 17
24 24 23 23 23 23 22 22 22 22 22 21 21 21 20 19 19 19 20 19 18 17 16 16 15 15 15 16 17 17 16 15 13 13 15 15 16 19
24 24 24 24 23 23 22 22 22 22 21 21 21 20 20 20 19 18 18 18 17 17 17 17 16 16 16 16 17 17 17 16 16 16 15 14 14 14